TimeCDT,TemperatureF,Dew PointF,Humidity,Sea Level PressureIn,VisibilityMPH,Wind Direction,Wind SpeedMPH,Gust SpeedMPH,PrecipitationIn,Events,Conditions,WindDirDegrees,DateUTC
12:53 AM,63.0,55.9,78,30.09,10.0,Calm,Calm,-,N/A,,Clear,0,2013-07-02 05:53:00
1:53 AM,63.0,55.9,78,30.09,10.0,Calm,Calm,-,N/A,,Clear,0,2013-07-02 06:53:00
2:53 AM,62.1,55.0,78,30.09,10.0,Calm,Calm,-,N/A,,Clear,0,2013-07-02 07:53:00
3:53 AM,61.0,54.0,78,30.09,10.0,Calm,Calm,-,N/A,,Clear,0,2013-07-02 08:53:00
4:53 AM,60.1,54.0,80,30.10,10.0,Calm,Calm,-,N/A,,Clear,0,2013-07-02 09:53:00
5:53 AM,57.9,54.0,87,30.12,10.0,Calm,Calm,-,N/A,,Clear,0,2013-07-02 10:53:00
6:53 AM,59.0,54.0,83,30.13,10.0,Calm,Calm,-,N/A,,Clear,0,2013-07-02 11:53:00
7:53 AM,64.9,55.9,73,30.14,10.0,Calm,Calm,-,N/A,,Clear,0,2013-07-02 12:53:00
9:53 AM,75.0,55.9,51,30.13,10.0,Calm,Calm,-,N/A,,Clear,0,2013-07-02 14:53:00
10:53 AM,78.1,54.0,43,30.13,10.0,ENE,4.6,-,N/A,,Clear,70,2013-07-02 15:53:00
11:53 AM,80.1,52.0,38,30.13,10.0,ENE,9.2,-,N/A,,Clear,70,2013-07-02 16:53:00
12:53 PM,81.0,51.1,35,30.13,10.0,ENE,8.1,-,N/A,,Clear,70,2013-07-02 17:53:00
1:53 PM,82.9,50.0,32,30.11,10.0,NE,6.9,-,N/A,,Clear,40,2013-07-02 18:53:00
2:53 PM,84.0,50.0,31,30.10,10.0,NE,5.8,-,N/A,,Clear,50,2013-07-02 19:53:00
3:53 PM,84.0,48.9,29,30.08,10.0,ENE,3.5,-,N/A,,Partly Cloudy,60,2013-07-02 20:53:00
4:53 PM,84.0,51.1,32,30.06,10.0,Calm,Calm,-,N/A,,Clear,0,2013-07-02 21:53:00
5:53 PM,82.9,48.9,31,30.06,10.0,Calm,Calm,-,N/A,,Partly Cloudy,0,2013-07-02 22:53:00
6:53 PM,82.0,51.1,34,30.04,10.0,ESE,5.8,-,N/A,,Clear,120,2013-07-02 23:53:00
7:53 PM,81.0,51.1,35,30.05,10.0,Calm,Calm,-,N/A,,Clear,0,2013-07-03 00:53:00
8:53 PM,75.9,61.0,60,30.04,10.0,Calm,Calm,-,N/A,,Clear,0,2013-07-03 01:53:00
9:53 PM,72.0,62.1,71,30.06,10.0,East,3.5,-,N/A,,Clear,90,2013-07-03 02:53:00
10:53 PM,70.0,60.1,71,30.06,10.0,Calm,Calm,-,N/A,,Clear,0,2013-07-03 03:53:00
11:53 PM,66.0,60.1,81,30.06,10.0,Calm,Calm,-,N/A,,Clear,0,2013-07-03 04:53:00